Regional Weather Roundup
Issued by NWS

Home | Current Version | Previous Version | Text Only | Print | Product List | Glossary Off
Versions: 1 2 3 4 5 6 7 8 9 10 11 12 13 14 15 16 17 18 19 20 21 22 23 24 25 26 27 28 29 30 31 32 33 34 35 36 37 38 39 40 41 42 43 44 45 46 47 48 49 50

000
ASUS43 KBIS 300702
RWRND

NORTH DAKOTA REGIONAL WEATHER ROUNDUP
NATIONAL WEATHER SERVICE BISMARCK ND
200 AM CDT SAT JUL 30 2016

NOTE: "FAIR" INDICATES FEW OR NO CLOUDS BELOW 12,000 FEET WITH NO
SIGNIFICANT WEATHER AND/OR OBSTRUCTIONS TO VISIBILITY.


NDZ001>003-009>011-017-300800-
NORTHWEST NORTH DAKOTA

CITY           SKY/WX    TMP DP  RH WIND       PRES   REMARKS
WILLISTON      CLEAR     64  57  78 E3        29.94F
MINOT          PTCLDY    67  61  81 SE5       29.94F
MINOT AFB      MOCLDY    58  56  92 S5        29.93F
$$

NDZ018>021-031>035-040>046-300800-
SOUTHWEST NORTH DAKOTA

CITY           SKY/WX    TMP DP  RH WIND       PRES   REMARKS
BISMARCK       RAIN      66  62  87 SE7       29.95F FOG
DICKINSON      CLEAR     58  56  93 S7        29.93F
GARRISON         N/A     67  65  93 E5        29.95F
HETTINGER ARPT MOCLDY    63  57  81 SE5       29.97F
$$

NDZ004>008-012>016-024-026-027-054-300800-
NORTHEAST NORTH DAKOTA

CITY           SKY/WX    TMP DP  RH WIND       PRES   REMARKS
GRAND FORKS    CLEAR     64  57  78 SE6       29.97F
GRND FRKS AFB  CLOUDY    62  56  81 S6        29.97F
DEVILS LAKE    PTCLDY    67  62  84 SE7       29.97F
$$

NDZ022-023-025-028>030-036>039-047>053-300800-
SOUTHEAST NORTH DAKOTA

CITY           SKY/WX    TMP DP  RH WIND       PRES   REMARKS
FARGO          CLOUDY    71  61  70 S8        29.99F
JAMESTOWN      PTCLDY    62  60  93 SE3       29.98F
$$




USA.gov is the U.S. government's official web portal to all federal, state and local government web resources and services.